Terminal Aerodrome Forecast
Issued by NWS San Angelo, TX

Home | Current Version | Previous Version | Text Only | Print | Product List | Glossary On
Versions: 1 2 3 4 5 6 7 8 9 10 11 12 13 14 15 16 17 18 19 20 21 22 23 24 25 26 27 28 29 30
000
FTUS44 KSJT 171857 AAA
TAFSJT
TAF AMD
KSJT 171857Z 1719/1818 03006KT 4SM -TSRA OVC035CB
     FM172200 04006KT P6SM -TSRA OVC025CB
     FM180200 02005KT 2SM -DZ BR OVC007=

USA.gov is the U.S. government's official web portal to all federal, state and local government web resources and services.